Time,TemperatureF,DewpointF,PressureIn,WindDirection,WindDirectionDegrees,WindSpeedMPH,WindSpeedGustMPH,Humidity,HourlyPrecipIn,Conditions,Clouds,dailyrainin,SolarRadiationWatts/m^2,SoftwareType,DateUTC
2013-04-13 00:02:00,59.9,27.6,29.74,ENE,69,0.0,0.0,29,0.00,,,0.00,0,LWC V2.00 B727,2013-04-13 07:02:00,
2013-04-13 00:07:00,59.6,27.3,29.74,ENE,69,0.0,0.0,29,0.00,,,0.00,0,LWC V2.00 B727,2013-04-13 07:07:00,
2013-04-13 00:12:00,59.6,26.5,29.73,ENE,69,0.0,3.0,28,0.00,,,0.00,0,LWC V2.00 B727,2013-04-13 07:12:00,
2013-04-13 00:17:00,59.8,27.5,29.73,ENE,69,0.0,2.0,29,0.00,,,0.00,0,LWC V2.00 B727,2013-04-13 07:17:00,
2013-04-13 00:22:00,59.8,27.5,29.73,ENE,69,0.0,1.0,29,0.00,,,0.00,0,LWC V2.00 B727,2013-04-13 07:22:00,
2013-04-13 00:27:00,59.9,27.6,29.73,ENE,69,0.0,0.0,29,0.00,,,0.00,0,LWC V2.00 B727,2013-04-13 07:27:00,
2013-04-13 00:32:00,59.6,28.1,29.73,ENE,69,0.0,0.0,30,0.00,,,0.00,0,LWC V2.00 B727,2013-04-13 07:32:00,
2013-04-13 00:37:00,59.6,27.3,29.73,ENE,69,0.0,1.0,29,0.00,,,0.00,0,LWC V2.00 B727,2013-04-13 07:37:00,
2013-04-13 00:42:00,59.7,28.2,29.73,ENE,69,1.0,1.0,30,0.00,,,0.00,0,LWC V2.00 B727,2013-04-13 07:42:00,
2013-04-13 00:47:00,60.1,28.6,29.73,ENE,69,0.0,2.0,30,0.00,,,0.00,0,LWC V2.00 B727,2013-04-13 07:47:00,
2013-04-13 00:52:00,60.4,28.0,29.73,ENE,69,0.0,1.0,29,0.00,,,0.00,0,LWC V2.00 B727,2013-04-13 07:52:00,
2013-04-13 00:57:00,60.3,29.5,29.72,ENE,69,0.0,1.0,31,0.00,,,0.00,0,LWC V2.00 B727,2013-04-13 07:57:00,
2013-04-13 01:02:00,59.8,28.3,29.72,ENE,69,1.0,2.0,30,0.00,,,0.00,0,LWC V2.00 B727,2013-04-13 08:02:00,
2013-04-13 01:07:00,59.6,28.1,29.72,ENE,69,0.0,1.0,30,0.00,,,0.00,0,LWC V2.00 B727,2013-04-13 08:07:00,
2013-04-13 01:12:00,59.6,28.1,29.72,ENE,69,0.0,0.0,30,0.00,,,0.00,0,LWC V2.00 B727,2013-04-13 08:12:00,
2013-04-13 01:17:00,59.5,28.0,29.72,ENE,69,0.0,0.0,30,0.00,,,0.00,0,LWC V2.00 B727,2013-04-13 08:17:00,
2013-04-13 01:22:00,59.5,28.0,29.72,ENE,69,0.0,0.0,30,0.00,,,0.00,0,LWC V2.00 B727,2013-04-13 08:22:00,
2013-04-13 01:27:00,59.4,28.8,29.72,ENE,69,0.0,0.0,31,0.00,,,0.00,0,LWC V2.00 B727,2013-04-13 08:27:00,
2013-04-13 01:32:00,59.3,28.7,29.72,ENE,69,0.0,0.0,31,0.00,,,0.00,0,LWC V2.00 B727,2013-04-13 08:32:00,
2013-04-13 01:37:00,58.9,29.1,29.72,ENE,69,1.0,1.0,32,0.00,,,0.00,0,LWC V2.00 B727,2013-04-13 08:37:00,
2013-04-13 01:42:00,58.7,28.9,29.72,ENE,69,0.0,0.0,32,0.00,,,0.00,0,LWC V2.00 B727,2013-04-13 08:42:00,
2013-04-13 01:47:00,58.8,28.2,29.72,ENE,69,0.0,1.0,31,0.00,,,0.00,0,LWC V2.00 B727,2013-04-13 08:47:00,
2013-04-13 01:52:00,58.9,28.3,29.72,ENE,69,0.0,0.0,31,0.00,,,0.00,0,LWC V2.00 B727,2013-04-13 08:52:00,
2013-04-13 01:57:00,59.1,28.5,29.72,ENE,69,0.0,0.0,31,0.00,,,0.00,0,LWC V2.00 B727,2013-04-13 08:57:00,
2013-04-13 02:02:00,59.3,28.7,29.72,ENE,69,0.0,1.0,31,0.00,,,0.00,0,LWC V2.00 B727,2013-04-13 09:02:00,
2013-04-13 02:07:00,59.6,28.9,29.72,ENE,69,1.0,3.0,31,0.00,,,0.00,0,LWC V2.00 B727,2013-04-13 09:07:00,
2013-04-13 02:12:00,59.9,29.2,29.72,ENE,69,2.0,2.0,31,0.00,,,0.00,0,LWC V2.00 B727,2013-04-13 09:12:00,
2013-04-13 02:17:00,60.2,28.7,29.72,ENE,69,1.0,2.0,30,0.00,,,0.00,0,LWC V2.00 B727,2013-04-13 09:17:00,
2013-04-13 02:22:00,60.3,28.7,29.72,ENE,69,0.0,0.0,30,0.00,,,0.00,0,LWC V2.00 B727,2013-04-13 09:22:00,
2013-04-13 02:27:00,60.3,29.5,29.72,ENE,69,0.0,1.0,31,0.00,,,0.00,0,LWC V2.00 B727,2013-04-13 09:27:00,
2013-04-13 02:32:00,60.4,28.8,29.72,ENE,69,1.0,1.0,30,0.00,,,0.00,0,LWC V2.00 B727,2013-04-13 09:32:00,
2013-04-13 02:37:00,60.6,29.0,29.72,ENE,69,0.0,2.0,30,0.00,,,0.00,0,LWC V2.00 B727,2013-04-13 09:37:00,
2013-04-13 02:42:00,60.5,29.7,29.72,ENE,69,1.0,2.0,31,0.00,,,0.00,0,LWC V2.00 B727,2013-04-13 09:42:00,
2013-04-13 02:47:00,60.3,31.1,29.73,NNW,339,0.0,3.0,33,0.00,,,0.00,0,LWC V2.00 B727,2013-04-13 09:47:00,
2013-04-13 02:52:00,59.2,30.8,29.72,NNW,339,0.0,0.0,34,0.00,,,0.00,0,LWC V2.00 B727,2013-04-13 09:52:00,
2013-04-13 02:57:00,58.2,29.2,29.72,NNW,339,0.0,0.0,33,0.00,,,0.00,0,LWC V2.00 B727,2013-04-13 09:57:00,
2013-04-13 03:02:00,58.5,28.0,29.72,NNW,339,0.0,0.0,31,0.00,,,0.00,0,LWC V2.00 B727,2013-04-13 10:02:00,
2013-04-13 03:07:00,58.9,28.3,29.73,NNW,339,0.0,1.0,31,0.00,,,0.00,0,LWC V2.00 B727,2013-04-13 10:07:00,
2013-04-13 03:12:00,58.9,29.1,29.73,NNW,339,0.0,0.0,32,0.00,,,0.00,0,LWC V2.00 B727,2013-04-13 10:12:00,
2013-04-13 03:17:00,59.1,29.3,29.72,NNW,346,0.0,0.0,32,0.00,,,0.00,0,LWC V2.00 B727,2013-04-13 10:17:00,
2013-04-13 03:22:00,59.3,29.4,29.72,NE,53,0.0,3.0,32,0.00,,,0.00,0,LWC V2.00 B727,2013-04-13 10:22:00,
2013-04-13 03:27:00,58.9,29.9,29.72,ENE,71,2.0,4.0,33,0.00,,,0.00,0,LWC V2.00 B727,2013-04-13 10:27:00,
2013-04-13 03:32:00,58.3,30.8,29.72,ENE,68,0.0,3.0,35,0.00,,,0.00,0,LWC V2.00 B727,2013-04-13 10:32:00,
2013-04-13 03:37:00,57.9,30.4,29.73,ENE,68,0.0,0.0,35,0.00,,,0.00,0,LWC V2.00 B727,2013-04-13 10:37:00,
2013-04-13 03:42:00,57.6,30.2,29.73,ENE,68,0.0,0.0,35,0.00,,,0.00,0,LWC V2.00 B727,2013-04-13 10:42:00,
2013-04-13 03:47:00,57.1,31.1,29.72,ENE,68,0.0,0.0,37,0.00,,,0.00,0,LWC V2.00 B727,2013-04-13 10:47:00,
2013-04-13 03:52:00,56.6,29.3,29.73,ENE,68,0.0,0.0,35,0.00,,,0.00,0,LWC V2.00 B727,2013-04-13 10:52:00,
2013-04-13 03:57:00,56.6,29.3,29.73,ENE,68,0.0,0.0,35,0.00,,,0.00,0,LWC V2.00 B727,2013-04-13 10:57:00,
2013-04-13 04:02:00,56.7,29.4,29.73,ENE,68,0.0,0.0,35,0.00,,,0.00,0,LWC V2.00 B727,2013-04-13 11:02:00,
2013-04-13 04:07:00,56.6,30.6,29.73,ENE,65,0.0,3.0,37,0.00,,,0.00,0,LWC V2.00 B727,2013-04-13 11:07:00,
2013-04-13 04:12:00,55.9,30.0,29.73,ENE,65,0.0,1.0,37,0.00,,,0.00,0,LWC V2.00 B727,2013-04-13 11:12:00,
2013-04-13 04:17:00,55.6,29.1,29.73,ENE,65,2.0,3.0,36,0.00,,,0.00,0,LWC V2.00 B727,2013-04-13 11:17:00,
2013-04-13 04:22:00,56.0,28.7,29.73,ENE,70,0.0,3.0,35,0.00,,,0.00,0,LWC V2.00 B727,2013-04-13 11:22:00,
2013-04-13 04:27:00,56.1,29.5,29.73,ENE,71,3.0,6.0,36,0.00,,,0.00,0,LWC V2.00 B727,2013-04-13 11:27:00,
2013-04-13 04:32:00,55.8,29.9,29.73,ENE,75,4.0,5.0,37,0.00,,,0.00,0,LWC V2.00 B727,2013-04-13 11:32:00,
2013-04-13 04:37:00,55.8,29.9,29.73,ENE,72,0.0,2.0,37,0.00,,,0.00,0,LWC V2.00 B727,2013-04-13 11:37:00,
2013-04-13 04:42:00,55.8,29.3,29.73,ENE,73,0.0,3.0,36,0.00,,,0.00,0,LWC V2.00 B727,2013-04-13 11:42:00,
2013-04-13 04:47:00,55.9,28.7,29.73,ENE,73,0.0,1.0,35,0.00,,,0.00,0,LWC V2.00 B727,2013-04-13 11:47:00,
2013-04-13 04:52:00,56.0,28.0,29.73,ENE,73,0.0,0.0,34,0.00,,,0.00,0,LWC V2.00 B727,2013-04-13 11:52:00,
2013-04-13 04:57:00,56.0,28.7,29.73,ENE,73,0.0,0.0,35,0.00,,,0.00,0,LWC V2.00 B727,2013-04-13 11:57:00,
2013-04-13 05:02:00,55.8,27.1,29.73,ENE,73,0.0,1.0,33,0.00,,,0.00,0,LWC V2.00 B727,2013-04-13 12:02:00,
2013-04-13 05:07:00,55.9,27.2,29.73,ENE,73,0.0,1.0,33,0.00,,,0.00,0,LWC V2.00 B727,2013-04-13 12:07:00,
2013-04-13 05:12:00,56.2,26.7,29.73,ENE,73,0.0,1.0,32,0.00,,,0.00,0,LWC V2.00 B727,2013-04-13 12:12:00,
2013-04-13 05:17:00,56.6,27.1,29.73,ENE,73,0.0,0.0,32,0.00,,,0.00,0,LWC V2.00 B727,2013-04-13 12:17:00,
2013-04-13 05:22:00,56.6,27.1,29.73,ENE,73,0.0,0.0,32,0.00,,,0.00,0,LWC V2.00 B727,2013-04-13 12:22:00,
2013-04-13 05:27:00,56.8,26.5,29.73,ENE,73,0.0,1.0,31,0.00,,,0.00,0,LWC V2.00 B727,2013-04-13 12:27:00,
2013-04-13 05:32:00,57.1,26.8,29.73,ENE,72,2.0,3.0,31,0.00,,,0.00,0,LWC V2.00 B727,2013-04-13 12:32:00,
2013-04-13 05:37:00,57.3,26.1,29.73,ENE,71,2.0,3.0,30,0.00,,,0.00,0,LWC V2.00 B727,2013-04-13 12:37:00,
2013-04-13 05:42:00,57.7,26.5,29.73,ENE,71,0.0,2.0,30,0.00,,,0.00,0,LWC V2.00 B727,2013-04-13 12:42:00,
2013-04-13 05:47:00,58.0,25.9,29.73,ENE,71,2.0,2.0,29,0.00,,,0.00,0,LWC V2.00 B727,2013-04-13 12:47:00,
2013-04-13 05:52:00,58.2,26.1,29.73,ENE,71,0.0,2.0,29,0.00,,,0.00,0,LWC V2.00 B727,2013-04-13 12:52:00,
2013-04-13 05:57:00,58.5,25.5,29.73,ENE,71,1.0,1.0,28,0.00,,,0.00,5,LWC V2.00 B727,2013-04-13 12:57:00,
2013-04-13 06:02:00,58.5,26.4,29.74,ENE,71,0.0,0.0,29,0.00,,,0.00,9,LWC V2.00 B727,2013-04-13 13:02:00,
2013-04-13 06:07:00,58.3,26.2,29.73,ENE,77,2.0,5.0,29,0.00,,,0.00,12,LWC V2.00 B727,2013-04-13 13:07:00,
2013-04-13 06:12:00,58.2,26.1,29.74,ENE,77,0.0,0.0,29,0.00,,,0.00,14,LWC V2.00 B727,2013-04-13 13:12:00,
2013-04-13 06:17:00,58.1,26.8,29.74,ENE,77,0.0,0.0,30,0.00,,,0.00,18,LWC V2.00 B727,2013-04-13 13:17:00,
2013-04-13 06:22:00,57.7,26.5,29.74,ENE,77,0.0,0.0,30,0.00,,,0.00,21,LWC V2.00 B727,2013-04-13 13:22:00,
2013-04-13 06:27:00,57.2,26.1,29.75,ENE,77,0.0,0.0,30,0.00,,,0.00,23,LWC V2.00 B727,2013-04-13 13:27:00,
2013-04-13 06:32:00,56.9,26.6,29.75,ENE,77,0.0,0.0,31,0.00,,,0.00,26,LWC V2.00 B727,2013-04-13 13:32:00,
2013-04-13 06:37:00,56.7,27.2,29.75,ENE,77,0.0,2.0,32,0.00,,,0.00,28,LWC V2.00 B727,2013-04-13 13:37:00,
2013-04-13 06:42:00,56.5,27.0,29.75,ENE,77,0.0,0.0,32,0.00,,,0.00,32,LWC V2.00 B727,2013-04-13 13:42:00,
2013-04-13 06:47:00,56.4,27.7,29.75,ENE,77,0.0,2.0,33,0.00,,,0.00,125,LWC V2.00 B727,2013-04-13 13:47:00,
2013-04-13 06:52:00,56.8,28.0,29.76,ENE,77,0.0,2.0,33,0.00,,,0.00,142,LWC V2.00 B727,2013-04-13 13:52:00,
2013-04-13 06:57:00,57.6,28.0,29.76,ENE,77,0.0,2.0,32,0.00,,,0.00,160,LWC V2.00 B727,2013-04-13 13:57:00,
2013-04-13 07:02:00,58.6,28.8,29.76,ENE,77,0.0,1.0,32,0.00,,,0.00,174,LWC V2.00 B727,2013-04-13 14:02:00,
2013-04-13 07:08:00,59.6,28.9,29.76,ENE,77,0.0,1.0,31,0.00,,,0.00,192,LWC V2.00 B727,2013-04-13 14:08:00,
2013-04-13 07:13:00,60.6,29.8,29.76,ENE,77,1.0,1.0,31,0.00,,,0.00,209,LWC V2.00 B727,2013-04-13 14:13:00,
2013-04-13 07:17:00,61.4,31.3,29.76,ENE,77,0.0,0.0,32,0.00,,,0.00,227,LWC V2.00 B727,2013-04-13 14:17:00,
2013-04-13 07:22:00,61.8,31.6,29.76,ENE,77,0.0,0.0,32,0.00,,,0.00,244,LWC V2.00 B727,2013-04-13 14:22:00,
2013-04-13 07:28:00,62.1,33.4,29.76,ENE,77,0.0,0.0,34,0.00,,,0.00,264,LWC V2.00 B727,2013-04-13 14:28:00,
2013-04-13 07:32:00,63.5,35.4,29.76,ENE,77,0.0,1.0,35,0.00,,,0.00,283,LWC V2.00 B727,2013-04-13 14:32:00,
2013-04-13 07:37:00,64.4,34.7,29.76,ENE,77,0.0,1.0,33,0.00,,,0.00,301,LWC V2.00 B727,2013-04-13 14:37:00,
2013-04-13 07:42:00,65.1,33.7,29.77,ENE,77,0.0,1.0,31,0.00,,,0.00,316,LWC V2.00 B727,2013-04-13 14:42:00,
2013-04-13 07:47:00,65.8,33.5,29.77,ENE,77,0.0,0.0,30,0.00,,,0.00,336,LWC V2.00 B727,2013-04-13 14:47:00,
2013-04-13 07:52:00,65.5,32.4,29.77,ENE,77,0.0,1.0,29,0.00,,,0.00,353,LWC V2.00 B727,2013-04-13 14:52:00,
2013-04-13 07:57:00,65.1,32.1,29.77,ENE,77,0.0,0.0,29,0.00,,,0.00,371,LWC V2.00 B727,2013-04-13 14:57:00,
2013-04-13 08:02:00,65.4,32.3,29.77,ENE,77,0.0,1.0,29,0.00,,,0.00,390,LWC V2.00 B727,2013-04-13 15:02:00,
2013-04-13 08:07:00,66.2,32.1,29.77,ENE,77,0.0,0.0,28,0.00,,,0.00,410,LWC V2.00 B727,2013-04-13 15:07:00,
2013-04-13 08:12:00,66.8,33.5,29.77,ENE,77,0.0,1.0,29,0.00,,,0.00,425,LWC V2.00 B727,2013-04-13 15:12:00,
2013-04-13 08:17:00,67.7,31.6,29.77,ENE,77,0.0,0.0,26,0.00,,,0.00,445,LWC V2.00 B727,2013-04-13 15:17:00,
2013-04-13 08:22:00,68.0,30.9,29.77,ENE,77,0.0,1.0,25,0.00,,,0.00,462,LWC V2.00 B727,2013-04-13 15:22:00,
2013-04-13 08:27:00,67.8,30.7,29.77,ENE,77,0.0,1.0,25,0.00,,,0.00,476,LWC V2.00 B727,2013-04-13 15:27:00,
2013-04-13 08:32:00,67.9,30.8,29.77,ENE,78,1.0,2.0,25,0.00,,,0.00,497,LWC V2.00 B727,2013-04-13 15:32:00,
2013-04-13 08:38:00,68.1,30.9,29.77,ESE,110,1.0,3.0,25,0.00,,,0.00,513,LWC V2.00 B727,2013-04-13 15:38:00,
2013-04-13 08:43:00,68.6,30.4,29.77,ESE,113,1.0,1.0,24,0.00,,,0.00,531,LWC V2.00 B727,2013-04-13 15:43:00,
2013-04-13 08:47:00,69.1,30.8,29.77,SE,136,0.0,4.0,24,0.00,,,0.00,548,LWC V2.00 B727,2013-04-13 15:47:00,
2013-04-13 08:52:00,69.5,30.1,29.77,SW,217,2.0,4.0,23,0.00,,,0.00,561,LWC V2.00 B727,2013-04-13 15:52:00,
2013-04-13 08:57:00,69.7,29.2,29.76,SW,214,3.0,3.0,22,0.00,,,0.00,577,LWC V2.00 B727,2013-04-13 15:57:00,
2013-04-13 09:02:00,70.1,29.5,29.76,SW,217,1.0,2.0,22,0.00,,,0.00,596,LWC V2.00 B727,2013-04-13 16:02:00,
2013-04-13 09:07:00,70.4,28.6,29.76,SW,214,0.0,2.0,21,0.00,,,0.00,610,LWC V2.00 B727,2013-04-13 16:07:00,
2013-04-13 09:12:00,70.5,27.5,29.76,SW,215,3.0,3.0,20,0.00,,,0.00,628,LWC V2.00 B727,2013-04-13 16:12:00,
2013-04-13 09:17:00,70.6,27.6,29.76,SW,215,0.0,3.0,20,0.00,,,0.00,643,LWC V2.00 B727,2013-04-13 16:17:00,
2013-04-13 09:22:00,70.8,26.5,29.76,SSW,212,2.0,5.0,19,0.00,,,0.00,654,LWC V2.00 B727,2013-04-13 16:22:00,
2013-04-13 09:27:00,71.3,28.2,29.76,SW,217,0.0,5.0,20,0.00,,,0.00,670,LWC V2.00 B727,2013-04-13 16:27:00,
2013-04-13 09:32:00,71.6,28.4,29.76,SW,215,2.0,7.0,20,0.00,,,0.00,684,LWC V2.00 B727,2013-04-13 16:32:00,
2013-04-13 09:37:00,71.7,27.2,29.76,SW,218,5.0,5.0,19,0.00,,,0.00,698,LWC V2.00 B727,2013-04-13 16:37:00,
2013-04-13 09:43:00,72.5,27.9,29.76,SW,214,4.0,6.0,19,0.00,,,0.00,712,LWC V2.00 B727,2013-04-13 16:43:00,
2013-04-13 09:47:00,72.6,26.7,29.76,WSW,240,1.0,6.0,18,0.00,,,0.00,726,LWC V2.00 B727,2013-04-13 16:47:00,
2013-04-13 09:52:00,72.5,26.6,29.75,WSW,242,3.0,3.0,18,0.00,,,0.00,738,LWC V2.00 B727,2013-04-13 16:52:00,
2013-04-13 09:57:00,73.0,27.0,29.76,SW,214,1.0,4.0,18,0.00,,,0.00,751,LWC V2.00 B727,2013-04-13 16:57:00,
2013-04-13 10:02:00,73.3,25.9,29.75,South,178,0.0,5.0,17,0.00,,,0.00,765,LWC V2.00 B727,2013-04-13 17:02:00,
2013-04-13 10:07:00,73.5,24.6,29.76,SW,217,2.0,4.0,16,0.00,,,0.00,777,LWC V2.00 B727,2013-04-13 17:07:00,
2013-04-13 10:12:00,73.4,24.5,29.76,WSW,251,3.0,6.0,16,0.00,,,0.00,788,LWC V2.00 B727,2013-04-13 17:12:00,
2013-04-13 10:17:00,74.7,27.0,29.76,WSW,258,1.0,5.0,17,0.00,,,0.00,800,LWC V2.00 B727,2013-04-13 17:17:00,
2013-04-13 10:22:00,75.1,25.8,29.76,West,267,2.0,5.0,16,0.00,,,0.00,809,LWC V2.00 B727,2013-04-13 17:22:00,
2013-04-13 10:27:00,75.7,24.8,29.76,West,271,1.0,4.0,15,0.00,,,0.00,819,LWC V2.00 B727,2013-04-13 17:27:00,
2013-04-13 10:32:00,76.1,25.1,29.76,SW,217,6.0,7.0,15,0.00,,,0.00,828,LWC V2.00 B727,2013-04-13 17:32:00,
2013-04-13 10:37:00,75.1,24.3,29.76,West,279,0.0,5.0,15,0.00,,,0.00,838,LWC V2.00 B727,2013-04-13 17:37:00,
2013-04-13 10:42:00,75.3,24.5,29.76,WSW,250,5.0,8.0,15,0.00,,,0.00,849,LWC V2.00 B727,2013-04-13 17:42:00,
2013-04-13 10:47:00,76.2,23.5,29.76,SW,232,2.0,4.0,14,0.00,,,0.00,858,LWC V2.00 B727,2013-04-13 17:47:00,
2013-04-13 10:52:00,76.2,25.2,29.75,WNW,284,0.0,4.0,15,0.00,,,0.00,868,LWC V2.00 B727,2013-04-13 17:52:00,
2013-04-13 10:57:00,76.1,21.7,29.75,SW,225,2.0,4.0,13,0.00,,,0.00,875,LWC V2.00 B727,2013-04-13 17:57:00,
2013-04-13 11:02:00,75.7,26.3,29.75,SW,236,2.0,6.0,16,0.00,,,0.00,884,LWC V2.00 B727,2013-04-13 18:02:00,
2013-04-13 11:07:00,76.3,25.2,29.75,WSW,244,0.0,1.0,15,0.00,,,0.00,888,LWC V2.00 B727,2013-04-13 18:07:00,
2013-04-13 11:12:00,76.5,25.4,29.75,WSW,250,1.0,3.0,15,0.00,,,0.00,896,LWC V2.00 B727,2013-04-13 18:12:00,
2013-04-13 11:18:00,77.7,26.4,29.75,WSW,254,3.0,6.0,15,0.00,,,0.00,904,LWC V2.00 B727,2013-04-13 18:18:00,
2013-04-13 11:23:00,77.3,22.6,29.75,SW,220,2.0,3.0,13,0.00,,,0.00,909,LWC V2.00 B727,2013-04-13 18:23:00,
2013-04-13 11:27:00,75.9,23.3,29.75,ENE,77,1.0,6.0,14,0.00,,,0.00,912,LWC V2.00 B727,2013-04-13 18:27:00,
2013-04-13 11:31:00,77.4,26.1,29.75,SW,216,3.0,5.0,15,0.00,,,0.00,916,LWC V2.00 B727,2013-04-13 18:31:00,
2013-04-13 11:36:00,78.5,25.3,29.74,SW,236,7.0,9.0,14,0.00,,,0.00,923,LWC V2.00 B727,2013-04-13 18:36:00,
2013-04-13 11:41:00,77.6,26.3,29.74,SSW,203,7.0,7.0,15,0.00,,,0.00,926,LWC V2.00 B727,2013-04-13 18:41:00,
2013-04-13 11:46:00,78.4,23.5,29.74,SE,136,1.0,6.0,13,0.00,,,0.00,930,LWC V2.00 B727,2013-04-13 18:46:00,
2013-04-13 11:51:00,79.5,24.3,29.74,West,279,1.0,5.0,13,0.00,,,0.00,933,LWC V2.00 B727,2013-04-13 18:51:00,
2013-04-13 11:56:00,78.5,25.3,29.74,SW,222,2.0,5.0,14,0.00,,,0.00,937,LWC V2.00 B727,2013-04-13 18:56:00,
2013-04-13 12:01:00,79.9,24.7,29.74,SSW,207,8.0,9.0,13,0.00,,,0.00,940,LWC V2.00 B727,2013-04-13 19:01:00,
2013-04-13 12:06:00,78.8,25.6,29.73,SW,228,0.0,5.0,14,0.00,,,0.00,942,LWC V2.00 B727,2013-04-13 19:06:00,
2013-04-13 12:11:00,78.9,25.7,29.73,WSW,252,6.0,7.0,14,0.00,,,0.00,944,LWC V2.00 B727,2013-04-13 19:11:00,
2013-04-13 12:16:00,79.0,24.0,29.73,North,350,0.0,3.0,13,0.00,,,0.00,942,LWC V2.00 B727,2013-04-13 19:16:00,
2013-04-13 12:21:00,78.9,23.9,29.72,SSW,212,8.0,8.0,13,0.00,,,0.00,944,LWC V2.00 B727,2013-04-13 19:21:00,
2013-04-13 12:26:00,79.7,24.5,29.72,SW,219,4.0,6.0,13,0.00,,,0.00,944,LWC V2.00 B727,2013-04-13 19:26:00,
2013-04-13 12:31:00,80.3,23.1,29.72,West,279,0.0,5.0,12,0.00,,,0.00,944,LWC V2.00 B727,2013-04-13 19:31:00,
2013-04-13 12:36:00,80.5,23.2,29.72,WNW,303,0.0,7.0,12,0.00,,,0.00,946,LWC V2.00 B727,2013-04-13 19:36:00,
2013-04-13 12:41:00,80.2,23.0,29.72,SW,221,3.0,5.0,12,0.00,,,0.00,942,LWC V2.00 B727,2013-04-13 19:41:00,
2013-04-13 12:46:00,81.2,23.8,29.71,WSW,258,4.0,9.0,12,0.00,,,0.00,944,LWC V2.00 B727,2013-04-13 19:46:00,
2013-04-13 12:51:00,79.4,24.3,29.71,SSW,198,5.0,8.0,13,0.00,,,0.00,942,LWC V2.00 B727,2013-04-13 19:51:00,
2013-04-13 12:56:00,80.3,23.1,29.71,SW,232,4.0,6.0,12,0.00,,,0.00,937,LWC V2.00 B727,2013-04-13 19:56:00,
2013-04-13 13:01:00,80.8,23.4,29.71,West,269,0.0,6.0,12,0.00,,,0.00,935,LWC V2.00 B727,2013-04-13 20:01:00,
2013-04-13 13:06:00,79.8,22.7,29.71,NNW,336,0.0,2.0,12,0.00,,,0.00,932,LWC V2.00 B727,2013-04-13 20:06:00,
2013-04-13 13:11:00,79.2,22.2,29.70,WSW,255,1.0,3.0,12,0.00,,,0.00,928,LWC V2.00 B727,2013-04-13 20:11:00,
2013-04-13 13:16:00,81.1,21.6,29.70,NW,304,0.0,4.0,11,0.00,,,0.00,921,LWC V2.00 B727,2013-04-13 20:16:00,
2013-04-13 13:21:00,80.0,22.8,29.70,NNW,339,1.0,2.0,12,0.00,,,0.00,919,LWC V2.00 B727,2013-04-13 20:21:00,
2013-04-13 13:26:00,81.0,21.5,29.70,WSW,257,4.0,6.0,11,0.00,,,0.00,914,LWC V2.00 B727,2013-04-13 20:26:00,
2013-04-13 13:31:00,80.9,23.5,29.69,West,259,2.0,8.0,12,0.00,,,0.00,907,LWC V2.00 B727,2013-04-13 20:31:00,
2013-04-13 13:36:00,81.2,23.8,29.70,SW,224,6.0,8.0,12,0.00,,,0.00,902,LWC V2.00 B727,2013-04-13 20:36:00,
2013-04-13 13:41:00,80.5,23.2,29.69,SSW,206,5.0,5.0,12,0.00,,,0.00,895,LWC V2.00 B727,2013-04-13 20:41:00,
2013-04-13 13:46:00,79.8,20.6,29.69,SW,235,4.0,5.0,11,0.00,,,0.00,889,LWC V2.00 B727,2013-04-13 20:46:00,
2013-04-13 13:51:00,80.7,23.4,29.69,SSW,200,5.0,9.0,12,0.00,,,0.00,879,LWC V2.00 B727,2013-04-13 20:51:00,
2013-04-13 13:56:00,81.8,22.2,29.69,WSW,248,7.0,10.0,11,0.00,,,0.00,870,LWC V2.00 B727,2013-04-13 20:56:00,
2013-04-13 14:01:00,81.5,21.9,29.68,WSW,248,6.0,11.0,11,0.00,,,0.00,863,LWC V2.00 B727,2013-04-13 21:01:00,
2013-04-13 14:06:00,81.8,22.2,29.68,SW,229,5.0,7.0,11,0.00,,,0.00,854,LWC V2.00 B727,2013-04-13 21:06:00,
2013-04-13 14:11:00,80.8,21.4,29.68,South,188,8.0,12.0,11,0.00,,,0.00,847,LWC V2.00 B727,2013-04-13 21:11:00,
2013-04-13 14:16:00,81.0,21.5,29.67,WSW,249,2.0,7.0,11,0.00,,,0.00,835,LWC V2.00 B727,2013-04-13 21:16:00,
2013-04-13 14:21:00,80.3,21.0,29.68,SW,222,2.0,5.0,11,0.00,,,0.00,823,LWC V2.00 B727,2013-04-13 21:21:00,
2013-04-13 14:26:00,81.5,21.9,29.67,SSW,201,2.0,4.0,11,0.00,,,0.00,812,LWC V2.00 B727,2013-04-13 21:26:00,
2013-04-13 14:31:00,81.9,22.2,29.67,WSW,242,5.0,11.0,11,0.00,,,0.00,802,LWC V2.00 B727,2013-04-13 21:31:00,
2013-04-13 14:36:00,81.6,22.0,29.67,West,269,3.0,9.0,11,0.00,,,0.00,791,LWC V2.00 B727,2013-04-13 21:36:00,
2013-04-13 14:41:00,82.0,22.3,29.67,West,274,8.0,9.0,11,0.00,,,0.00,777,LWC V2.00 B727,2013-04-13 21:41:00,
2013-04-13 14:46:00,81.9,22.2,29.67,WSW,247,7.0,9.0,11,0.00,,,0.00,766,LWC V2.00 B727,2013-04-13 21:46:00,
2013-04-13 14:51:00,81.9,22.2,29.66,WSW,243,6.0,9.0,11,0.00,,,0.00,756,LWC V2.00 B727,2013-04-13 21:51:00,
2013-04-13 14:56:00,82.3,22.5,29.66,West,263,2.0,6.0,11,0.00,,,0.00,740,LWC V2.00 B727,2013-04-13 21:56:00,
2013-04-13 15:01:00,81.2,21.7,29.66,SW,232,3.0,5.0,11,0.00,,,0.00,728,LWC V2.00 B727,2013-04-13 22:01:00,
2013-04-13 15:06:00,81.3,21.8,29.66,SSW,198,3.0,7.0,11,0.00,,,0.00,715,LWC V2.00 B727,2013-04-13 22:06:00,
2013-04-13 15:11:00,81.2,23.8,29.65,SSW,207,4.0,6.0,12,0.00,,,0.00,700,LWC V2.00 B727,2013-04-13 22:11:00,
2013-04-13 15:16:00,82.2,22.5,29.65,NW,304,5.0,8.0,11,0.00,,,0.00,689,LWC V2.00 B727,2013-04-13 22:16:00,
2013-04-13 15:21:00,82.3,22.5,29.65,SW,235,3.0,4.0,11,0.00,,,0.00,677,LWC V2.00 B727,2013-04-13 22:21:00,
2013-04-13 15:26:00,82.4,22.6,29.65,WSW,238,7.0,9.0,11,0.00,,,0.00,663,LWC V2.00 B727,2013-04-13 22:26:00,
2013-04-13 15:31:00,81.4,21.8,29.65,SW,227,1.0,12.0,11,0.00,,,0.00,645,LWC V2.00 B727,2013-04-13 22:31:00,
2013-04-13 15:36:00,81.0,21.5,29.65,SW,234,6.0,8.0,11,0.00,,,0.00,628,LWC V2.00 B727,2013-04-13 22:36:00,
2013-04-13 15:41:00,81.3,21.8,29.64,WSW,237,0.0,4.0,11,0.00,,,0.00,613,LWC V2.00 B727,2013-04-13 22:41:00,
2013-04-13 15:46:00,81.6,22.0,29.64,WNW,286,0.0,6.0,11,0.00,,,0.00,594,LWC V2.00 B727,2013-04-13 22:46:00,
2013-04-13 15:51:00,81.8,22.2,29.63,SW,234,3.0,6.0,11,0.00,,,0.00,580,LWC V2.00 B727,2013-04-13 22:51:00,
2013-04-13 15:56:00,82.9,23.0,29.63,West,274,1.0,7.0,11,0.00,,,0.00,566,LWC V2.00 B727,2013-04-13 22:56:00,
2013-04-13 16:01:00,82.7,20.6,29.63,WNW,285,3.0,9.0,10,0.00,,,0.00,550,LWC V2.00 B727,2013-04-13 23:01:00,
2013-04-13 16:06:00,81.9,20.0,29.63,SW,234,4.0,11.0,10,0.00,,,0.00,534,LWC V2.00 B727,2013-04-13 23:06:00,
2013-04-13 16:11:00,82.0,20.1,29.63,NW,307,1.0,4.0,10,0.00,,,0.00,519,LWC V2.00 B727,2013-04-13 23:11:00,
2013-04-13 16:16:00,81.7,22.1,29.63,WNW,301,0.0,6.0,11,0.00,,,0.00,499,LWC V2.00 B727,2013-04-13 23:16:00,
2013-04-13 16:21:00,81.6,19.8,29.63,West,261,6.0,10.0,10,0.00,,,0.00,478,LWC V2.00 B727,2013-04-13 23:21:00,
2013-04-13 16:26:00,81.5,21.9,29.63,WSW,243,7.0,12.0,11,0.00,,,0.00,462,LWC V2.00 B727,2013-04-13 23:26:00,
2013-04-13 16:31:00,81.1,21.6,29.63,SW,232,1.0,8.0,11,0.00,,,0.00,446,LWC V2.00 B727,2013-04-13 23:31:00,
2013-04-13 16:36:00,81.3,21.8,29.62,SW,230,4.0,5.0,11,0.00,,,0.00,425,LWC V2.00 B727,2013-04-13 23:36:00,
2013-04-13 16:41:00,81.1,21.6,29.62,West,271,1.0,4.0,11,0.00,,,0.00,410,LWC V2.00 B727,2013-04-13 23:41:00,
2013-04-13 16:46:00,81.7,22.1,29.62,SW,233,3.0,7.0,11,0.00,,,0.00,392,LWC V2.00 B727,2013-04-13 23:46:00,
2013-04-13 16:51:00,81.9,20.0,29.62,West,264,3.0,7.0,10,0.00,,,0.00,374,LWC V2.00 B727,2013-04-13 23:51:00,
2013-04-13 16:56:00,81.2,21.7,29.62,WSW,243,5.0,11.0,11,0.00,,,0.00,357,LWC V2.00 B727,2013-04-13 23:56:00,
2013-04-13 17:01:00,81.1,21.6,29.62,West,278,0.0,9.0,11,0.00,,,0.00,339,LWC V2.00 B727,2013-04-14 00:01:00,
2013-04-13 17:06:00,80.5,18.9,29.62,WNW,297,2.0,4.0,10,0.00,,,0.00,323,LWC V2.00 B727,2013-04-14 00:06:00,
2013-04-13 17:11:00,80.6,21.2,29.62,West,267,2.0,9.0,11,0.00,,,0.00,304,LWC V2.00 B727,2013-04-14 00:11:00,
2013-04-13 17:16:00,80.6,19.0,29.62,West,280,1.0,9.0,10,0.00,,,0.00,287,LWC V2.00 B727,2013-04-14 00:16:00,
2013-04-13 17:21:00,80.7,19.1,29.62,WSW,241,5.0,8.0,10,0.00,,,0.00,265,LWC V2.00 B727,2013-04-14 00:21:00,
2013-04-13 17:26:00,80.2,20.9,29.62,West,279,4.0,16.0,11,0.00,,,0.00,246,LWC V2.00 B727,2013-04-14 00:26:00,
2013-04-13 17:31:00,80.2,20.9,29.62,WNW,294,6.0,10.0,11,0.00,,,0.00,213,LWC V2.00 B727,2013-04-14 00:31:00,
2013-04-13 17:36:00,79.8,20.6,29.62,WSW,250,3.0,8.0,11,0.00,,,0.00,132,LWC V2.00 B727,2013-04-14 00:36:00,
2013-04-13 17:41:00,79.2,20.2,29.62,WSW,252,2.0,9.0,11,0.00,,,0.00,183,LWC V2.00 B727,2013-04-14 00:41:00,
2013-04-13 17:46:00,79.4,20.3,29.62,SSW,202,3.0,10.0,11,0.00,,,0.00,167,LWC V2.00 B727,2013-04-14 00:46:00,
2013-04-13 17:51:00,79.5,20.4,29.62,West,273,4.0,6.0,11,0.00,,,0.00,144,LWC V2.00 B727,2013-04-14 00:51:00,
2013-04-13 17:56:00,79.1,20.1,29.62,SW,228,0.0,5.0,11,0.00,,,0.00,123,LWC V2.00 B727,2013-04-14 00:56:00,
2013-04-13 18:01:00,78.8,19.9,29.61,SW,231,1.0,3.0,11,0.00,,,0.00,104,LWC V2.00 B727,2013-04-14 01:01:00,
2013-04-13 18:06:00,78.8,21.9,29.62,WSW,246,2.0,6.0,12,0.00,,,0.00,86,LWC V2.00 B727,2013-04-14 01:06:00,
2013-04-13 18:11:00,78.5,19.6,29.61,WSW,255,2.0,7.0,11,0.00,,,0.00,67,LWC V2.00 B727,2013-04-14 01:11:00,
2013-04-13 18:16:00,78.0,19.2,29.62,NNW,338,2.0,8.0,11,0.00,,,0.00,58,LWC V2.00 B727,2013-04-14 01:16:00,
2013-04-13 18:21:00,77.6,21.0,29.61,WNW,290,0.0,4.0,12,0.00,,,0.00,44,LWC V2.00 B727,2013-04-14 01:21:00,
2013-04-13 18:26:00,77.4,20.8,29.61,WSW,248,2.0,6.0,12,0.00,,,0.00,33,LWC V2.00 B727,2013-04-14 01:26:00,
2013-04-13 18:31:00,77.1,20.6,29.61,SW,236,9.0,9.0,12,0.00,,,0.00,23,LWC V2.00 B727,2013-04-14 01:31:00,
2013-04-13 18:36:00,76.9,20.4,29.61,WNW,291,0.0,5.0,12,0.00,,,0.00,16,LWC V2.00 B727,2013-04-14 01:36:00,
2013-04-13 18:41:00,76.5,20.1,29.62,West,281,2.0,11.0,12,0.00,,,0.00,12,LWC V2.00 B727,2013-04-14 01:41:00,
2013-04-13 18:46:00,75.9,19.7,29.62,West,269,1.0,5.0,12,0.00,,,0.00,11,LWC V2.00 B727,2013-04-14 01:46:00,
2013-04-13 18:51:00,75.6,19.4,29.62,WNW,296,1.0,2.0,12,0.00,,,0.00,5,LWC V2.00 B727,2013-04-14 01:51:00,
2013-04-13 18:56:00,75.0,20.8,29.62,WNW,296,0.0,2.0,13,0.00,,,0.00,0,LWC V2.00 B727,2013-04-14 01:56:00,
2013-04-13 19:01:00,74.9,20.7,29.62,WSW,245,1.0,5.0,13,0.00,,,0.00,0,LWC V2.00 B727,2013-04-14 02:01:00,
2013-04-13 19:06:00,74.4,20.4,29.62,WSW,242,1.0,3.0,13,0.00,,,0.00,0,LWC V2.00 B727,2013-04-14 02:06:00,
2013-04-13 19:11:00,74.0,20.0,29.62,WSW,257,0.0,5.0,13,0.00,,,0.00,0,LWC V2.00 B727,2013-04-14 02:11:00,
2013-04-13 19:16:00,73.7,21.5,29.62,SW,234,2.0,4.0,14,0.00,,,0.00,0,LWC V2.00 B727,2013-04-14 02:16:00,
2013-04-13 19:21:00,73.4,21.3,29.62,WSW,237,0.0,2.0,14,0.00,,,0.00,0,LWC V2.00 B727,2013-04-14 02:21:00,
2013-04-13 19:26:00,73.1,21.1,29.62,WSW,238,0.0,2.0,14,0.00,,,0.00,0,LWC V2.00 B727,2013-04-14 02:26:00,
2013-04-13 19:31:00,72.8,20.8,29.62,WSW,237,0.0,3.0,14,0.00,,,0.00,0,LWC V2.00 B727,2013-04-14 02:31:00,
2013-04-13 19:36:00,72.5,20.6,29.63,SW,236,0.0,2.0,14,0.00,,,0.00,0,LWC V2.00 B727,2013-04-14 02:36:00,
2013-04-13 19:41:00,72.5,20.6,29.63,SW,236,2.0,2.0,14,0.00,,,0.00,0,LWC V2.00 B727,2013-04-14 02:41:00,
2013-04-13 19:46:00,72.1,21.9,29.63,SW,236,0.0,1.0,15,0.00,,,0.00,0,LWC V2.00 B727,2013-04-14 02:46:00,
2013-04-13 19:51:00,71.7,21.6,29.63,SW,236,0.0,0.0,15,0.00,,,0.00,0,LWC V2.00 B727,2013-04-14 02:51:00,
2013-04-13 19:56:00,71.5,21.4,29.63,SW,236,2.0,3.0,15,0.00,,,0.00,0,LWC V2.00 B727,2013-04-14 02:56:00,
2013-04-13 20:01:00,71.3,21.3,29.63,SSW,211,3.0,4.0,15,0.00,,,0.00,0,LWC V2.00 B727,2013-04-14 03:01:00,
2013-04-13 20:06:00,71.7,21.6,29.64,SSW,213,2.0,6.0,15,0.00,,,0.00,0,LWC V2.00 B727,2013-04-14 03:06:00,
2013-04-13 20:11:00,71.5,21.4,29.64,SW,236,1.0,4.0,15,0.00,,,0.00,0,LWC V2.00 B727,2013-04-14 03:11:00,
2013-04-13 20:16:00,71.1,22.6,29.64,SSW,208,2.0,4.0,16,0.00,,,0.00,0,LWC V2.00 B727,2013-04-14 03:16:00,
2013-04-13 20:21:00,70.6,22.2,29.64,SSW,208,0.0,2.0,16,0.00,,,0.00,0,LWC V2.00 B727,2013-04-14 03:21:00,
2013-04-13 20:26:00,70.1,23.3,29.64,SSW,207,0.0,1.0,17,0.00,,,0.00,0,LWC V2.00 B727,2013-04-14 03:26:00,
2013-04-13 20:31:00,69.8,23.0,29.65,SSW,207,0.0,0.0,17,0.00,,,0.00,0,LWC V2.00 B727,2013-04-14 03:31:00,
2013-04-13 20:36:00,69.4,22.7,29.65,SSW,207,0.0,2.0,17,0.00,,,0.00,0,LWC V2.00 B727,2013-04-14 03:36:00,
2013-04-13 20:41:00,69.1,23.8,29.65,SSW,207,2.0,2.0,18,0.00,,,0.00,0,LWC V2.00 B727,2013-04-14 03:41:00,
2013-04-13 20:46:00,68.6,24.7,29.65,SSW,206,2.0,2.0,19,0.00,,,0.00,0,LWC V2.00 B727,2013-04-14 03:46:00,
2013-04-13 20:51:00,68.4,24.5,29.65,SSW,203,0.0,2.0,19,0.00,,,0.00,0,LWC V2.00 B727,2013-04-14 03:51:00,
2013-04-13 20:56:00,68.3,24.5,29.65,SSW,202,0.0,0.0,19,0.00,,,0.00,0,LWC V2.00 B727,2013-04-14 03:56:00,
2013-04-13 21:00:00,68.4,24.5,29.66,SSW,202,0.0,2.0,19,0.00,,,0.00,0,LWC V2.00 B727,2013-04-14 04:00:00,
2013-04-13 21:01:00,68.5,24.6,29.66,SSW,202,0.0,0.0,19,0.00,,,0.00,0,LWC V2.00 B727,2013-04-14 04:01:00,
2013-04-13 21:06:00,68.5,24.6,29.66,SSE,164,2.0,4.0,19,0.00,,,0.00,0,LWC V2.00 B727,2013-04-14 04:06:00,
2013-04-13 21:11:00,69.0,25.0,29.66,SSW,198,0.0,4.0,19,0.00,,,0.00,0,LWC V2.00 B727,2013-04-14 04:11:00,
2013-04-13 21:16:00,69.2,25.2,29.67,SSE,167,0.0,1.0,19,0.00,,,0.00,0,LWC V2.00 B727,2013-04-14 04:16:00,
2013-04-13 21:21:00,68.5,27.0,29.67,SSE,163,3.0,4.0,21,0.00,,,0.00,0,LWC V2.00 B727,2013-04-14 04:21:00,
2013-04-13 21:26:00,67.7,27.5,29.67,SSE,162,0.0,2.0,22,0.00,,,0.00,0,LWC V2.00 B727,2013-04-14 04:26:00,
2013-04-13 21:31:00,67.7,27.5,29.67,SSE,161,0.0,2.0,22,0.00,,,0.00,0,LWC V2.00 B727,2013-04-14 04:31:00,
2013-04-13 21:36:00,68.3,28.0,29.67,South,173,0.0,1.0,22,0.00,,,0.00,0,LWC V2.00 B727,2013-04-14 04:36:00,
2013-04-13 21:41:00,67.9,27.7,29.67,SSE,160,1.0,3.0,22,0.00,,,0.00,0,LWC V2.00 B727,2013-04-14 04:41:00,
2013-04-13 21:46:00,68.0,27.7,29.67,SSE,158,0.0,2.0,22,0.00,,,0.00,0,LWC V2.00 B727,2013-04-14 04:46:00,
2013-04-13 21:51:00,68.0,27.7,29.67,SSE,155,0.0,4.0,22,0.00,,,0.00,0,LWC V2.00 B727,2013-04-14 04:51:00,
2013-04-13 21:56:00,68.1,27.8,29.67,SSE,156,3.0,3.0,22,0.00,,,0.00,0,LWC V2.00 B727,2013-04-14 04:56:00,
2013-04-13 22:01:00,68.0,28.8,29.68,SSE,156,0.0,0.0,23,0.00,,,0.00,0,LWC V2.00 B727,2013-04-14 05:01:00,
2013-04-13 22:06:00,67.7,28.6,29.68,SSE,159,0.0,7.0,23,0.00,,,0.00,0,LWC V2.00 B727,2013-04-14 05:06:00,
2013-04-13 22:11:00,67.8,28.6,29.68,SSE,155,1.0,3.0,23,0.00,,,0.00,0,LWC V2.00 B727,2013-04-14 05:11:00,
2013-04-13 22:16:00,67.3,29.3,29.68,SSE,155,2.0,3.0,24,0.00,,,0.00,0,LWC V2.00 B727,2013-04-14 05:16:00,
2013-04-13 22:21:00,67.4,29.4,29.68,SSE,163,0.0,3.0,24,0.00,,,0.00,0,LWC V2.00 B727,2013-04-14 05:21:00,
2013-04-13 22:26:00,67.1,28.1,29.68,SSE,161,0.0,2.0,23,0.00,,,0.00,0,LWC V2.00 B727,2013-04-14 05:26:00,
2013-04-13 22:31:00,67.2,28.1,29.68,SSE,156,2.0,4.0,23,0.00,,,0.00,0,LWC V2.00 B727,2013-04-14 05:31:00,
2013-04-13 22:36:00,67.2,28.1,29.68,SSE,167,0.0,3.0,23,0.00,,,0.00,0,LWC V2.00 B727,2013-04-14 05:36:00,
2013-04-13 22:41:00,67.3,27.2,29.68,SSW,200,4.0,4.0,22,0.00,,,0.00,0,LWC V2.00 B727,2013-04-14 05:41:00,
2013-04-13 22:46:00,67.2,28.1,29.67,SSW,199,0.0,1.0,23,0.00,,,0.00,0,LWC V2.00 B727,2013-04-14 05:46:00,
2013-04-13 22:51:00,66.8,27.8,29.67,SSW,199,0.0,0.0,23,0.00,,,0.00,0,LWC V2.00 B727,2013-04-14 05:51:00,
2013-04-13 22:56:00,66.3,27.4,29.67,SSW,199,0.0,0.0,23,0.00,,,0.00,0,LWC V2.00 B727,2013-04-14 05:56:00,
2013-04-13 23:01:00,65.7,27.9,29.67,SSW,199,0.0,2.0,24,0.00,,,0.00,0,LWC V2.00 B727,2013-04-14 06:01:00,
2013-04-13 23:06:00,65.1,28.4,29.67,SSW,205,4.0,6.0,25,0.00,,,0.00,0,LWC V2.00 B727,2013-04-14 06:06:00,
2013-04-13 23:11:00,65.3,27.6,29.67,SSW,205,0.0,1.0,24,0.00,,,0.00,0,LWC V2.00 B727,2013-04-14 06:11:00,
2013-04-13 23:16:00,65.2,27.5,29.66,SSW,204,0.0,1.0,24,0.00,,,0.00,0,LWC V2.00 B727,2013-04-14 06:16:00,
2013-04-13 23:21:00,65.0,27.3,29.67,SSW,204,0.0,2.0,24,0.00,,,0.00,0,LWC V2.00 B727,2013-04-14 06:21:00,
2013-04-13 23:26:00,64.3,27.7,29.67,SSW,204,0.0,0.0,25,0.00,,,0.00,0,LWC V2.00 B727,2013-04-14 06:26:00,
2013-04-13 23:31:00,63.6,27.1,29.67,SSW,204,0.0,0.0,25,0.00,,,0.00,0,LWC V2.00 B727,2013-04-14 06:31:00,
2013-04-13 23:36:00,63.9,27.4,29.66,SSW,204,0.0,0.0,25,0.00,,,0.00,0,LWC V2.00 B727,2013-04-14 06:36:00,
2013-04-13 23:41:00,64.1,27.6,29.66,SSW,204,0.0,0.0,25,0.00,,,0.00,0,LWC V2.00 B727,2013-04-14 06:41:00,
2013-04-13 23:46:00,64.2,27.6,29.67,SSW,204,0.0,0.0,25,0.00,,,0.00,0,LWC V2.00 B727,2013-04-14 06:46:00,
2013-04-13 23:51:00,64.0,27.5,29.67,SSW,204,0.0,0.0,25,0.00,,,0.00,0,LWC V2.00 B727,2013-04-14 06:51:00,
2013-04-13 23:56:00,63.6,27.1,29.67,SSW,204,0.0,0.0,25,0.00,,,0.00,0,LWC V2.00 B727,2013-04-14 06:56:00,